Hourly Weather Roundup
Issued by NWS Central Illinois

Home | Current Version | Previous Version | Text Only | Print | Product List | Glossary On
Versions: 1 2 3 4 5 6 7 8 9 10 11 12 13 14 15 16 17 18 19 20 21 22 23 24 25 26 27 28 29 30 31 32 33 34 35 36 37 38 39 40 41 42 43 44 45 46 47 48 49 50
000
NZUS43 KILX 291410
HWRILX

AREA WEATHER ROUNDUP
NATIONAL WEATHER SERVICE, LINCOLN IL
900 AM CDT WED OCT 29 2014


CITY           SKY/WX    TMP DP  RH WIND       PRES   REMARKS
BLOOMINGTON    MOSUNNY   43  36  76 VRB7      30.12R
CHAMPAIGN      SUNNY     43  37  79 W14       30.12R
DECATUR        SUNNY     45  34  65 NW14      30.14R
FLORA          SUNNY     48  35  60 NW9       30.17R
GALESBURG      SUNNY     42  35  75 W12       30.13R
JACKSONVILLE   MOSUNNY   45  37  73 W7        30.18R
LACON          SUNNY     44  31  61 W8        30.11R
LAWRENCEVILLE  SUNNY     48  32  53 NW9       30.15R
LITCHFIELD     SUNNY     45  35  69 W8        30.18R
$$


CITY           SKY/WX    TMP DP  RH WIND       PRES   REMARKS
LINCOLN        MOSUNNY   45  34  66 NW3       30.14R
MACOMB         CLOUDY    42  37  80 W8        30.17R
MATTOON        SUNNY     45  36  70 W14       30.13R
MT CARMEL AP   SUNNY     52  39  62 NW6       30.15R
OLNEY-NOBLE AP SUNNY     46  36  66 W6        30.16R
PARIS          SUNNY     45  38  77 W12       30.13R
PEORIA         SUNNY     45  33  63 W8        30.13R
PONTIAC        SUNNY     45  37  73 W12       30.10R
RANTOUL        CLOUDY    44  38  78 W14       30.11R
ROBINSON       SUNNY     48  39  70 NW10      30.15R
SPRINGFIELD    SUNNY     45  35  68 W8        30.17R
TAYLORVILLE    SUNNY     43  34  70 W8        30.16R
$$

...REGIONAL REPORTS...


CITY           SKY/WX    TMP DP  RH WIND       PRES   REMARKS
CHICAGO O`HARE CLOUDY    44  30  57 W16       30.04R
KANKAKEE       CLOUDY    44  38  79 W8        30.08R
MOLINE         CLOUDY    44  32  62 W12G21    30.11R
MOUNT VERNON   SUNNY     45  39  81 CALM      30.18R
PITTSFIELD     SUNNY     45  35  70 NW6       30.19R
QUINCY         SUNNY     43  34  70 W9        30.18R
ROCKFORD       CLOUDY    44  31  60 NW9       30.08R
$$


CITY           SKY/WX    TMP DP  RH WIND       PRES   REMARKS
BURLINGTON     CLOUDY    43  36  76 W7        30.16R
CEDAR RAPIDS   SUNNY     40  33  76 NW13      30.13R WCI  32
DES MOINES     CLOUDY    45  33  63 NW10      30.20R
KIRKSVILLE     SUNNY     42  35  76 W8        30.21R
OTTUMWA        SUNNY     41  34  76 NW8       30.18R
ST LOUIS       MOSUNNY   49  37  63 W8        30.20R
$$


CITY           SKY/WX    TMP DP  RH WIND       PRES   REMARKS
TERRE HAUTE    SUNNY     46  36  68 W9        30.13R
EVANSVILLE     SUNNY     52  36  54 N5        30.16R
INDIANAPOLIS   MOSUNNY   46  36  68 W10       30.08R
LAFAYETTE      CLOUDY    42  36  79 W8        30.09R
MADISON        CLOUDY    43  32  65 NW12      30.05R
MILWAUKEE      CLOUDY    44  31  60 NW14G22   30.01R
$$





USA.gov is the U.S. government's official web portal to all federal, state and local government web resources and services.